Terug naar catalogus

LEMUR-2-FINNIAN

ActiefWetenschapSSO
NORAD 66782·PAYLOAD·🇺🇸 United States

Gelanceerd Nov 28, 2025 vanaf Vandenberg Space Force Base

Loading…

Volgende Passages (komende 24 uur)

TLE

VersSource: Space-Track

Epoch: Sep 14, 2026, 10:15 UTC

1 66782U 25276DW  26257.42725834  .00003764  00000-0  29912-3 0  9994
2 66782  97.5235 325.6576 0010721 147.8465 212.3416 15.00996672 33383

Volg LEMUR-2-FINNIAN in realtime met AllMySat

Download on the App Store